TimeCDT,TemperatureF,Dew PointF,Humidity,Sea Level PressureIn,VisibilityMPH,Wind Direction,Wind SpeedMPH,Gust SpeedMPH,PrecipitationIn,Events,Conditions,WindDirDegrees,DateUTC
12:53 AM,75.9,71.1,85,29.92,10.0,Calm,Calm,-,N/A,,Clear,0,2013-08-26 05:53:00
1:53 AM,72.0,69.1,91,29.93,10.0,Calm,Calm,-,N/A,,Clear,0,2013-08-26 06:53:00
2:53 AM,73.9,72.0,93,29.92,10.0,Calm,Calm,-,N/A,,Clear,0,2013-08-26 07:53:00
3:53 AM,73.0,71.1,93,29.92,10.0,Calm,Calm,-,N/A,,Clear,0,2013-08-26 08:53:00
4:53 AM,73.0,70.0,90,29.94,10.0,Calm,Calm,-,N/A,,Clear,0,2013-08-26 09:53:00
5:53 AM,73.0,70.0,90,29.93,10.0,Calm,Calm,-,N/A,,Clear,0,2013-08-26 10:53:00
6:53 AM,68.0,68.0,100,29.95,1.8,Calm,Calm,-,N/A,,Clear,0,2013-08-26 11:53:00
7:01 AM,69.8,68.0,94,29.97,3.0,Calm,Calm,-,N/A,,Clear,0,2013-08-26 12:01:00
7:53 AM,73.0,70.0,90,29.96,7.0,Calm,Calm,-,N/A,,Clear,0,2013-08-26 12:53:00
8:53 AM,78.1,69.1,74,29.95,10.0,East,5.8,-,N/A,,Clear,100,2013-08-26 13:53:00
9:53 AM,82.0,71.1,69,29.94,10.0,East,5.8,-,N/A,,Clear,100,2013-08-26 14:53:00
10:53 AM,86.0,72.0,63,29.93,10.0,SE,8.1,-,N/A,,Clear,130,2013-08-26 15:53:00
11:53 AM,88.0,71.1,57,29.92,10.0,SE,10.4,-,N/A,,Unknown,140,2013-08-26 16:53:00
12:53 PM,90.0,72.0,55,29.90,10.0,East,8.1,-,N/A,,Clear,100,2013-08-26 17:53:00
1:53 PM,91.9,72.0,52,29.89,10.0,SSE,13.8,20.7,N/A,,Scattered Clouds,150,2013-08-26 18:53:00
2:53 PM,89.1,72.0,57,29.88,10.0,SE,5.8,-,0.00,Rain,Light Rain,130,2013-08-26 19:53:00
3:53 PM,84.0,77.0,79,29.90,6.0,NE,4.6,-,0.08,Rain,Light Rain,40,2013-08-26 20:53:00
4:38 PM,80.6,75.2,84,29.90,2.5,NNW,10.4,-,0.11,Rain,Rain,340,2013-08-26 21:38:00
4:49 PM,75.2,66.2,73,29.90,1.0,NE,10.4,27.6,0.21,Rain,Rain,40,2013-08-26 21:49:00
4:53 PM,75.0,68.0,79,29.86,2.0,NE,13.8,26.5,0.22,Rain,Rain,40,2013-08-26 21:53:00
5:00 PM,75.2,68.0,78,29.88,7.0,North,11.5,20.7,0.00,Rain,Light Rain,360,2013-08-26 22:00:00
5:53 PM,77.0,70.0,79,29.86,10.0,ESE,8.1,-,0.00,,Mostly Cloudy,120,2013-08-26 22:53:00
6:53 PM,75.9,69.1,79,29.85,10.0,ENE,4.6,-,N/A,,Overcast,60,2013-08-26 23:53:00
7:53 PM,75.0,70.0,84,29.88,10.0,Calm,Calm,-,0.00,,Mostly Cloudy,0,2013-08-27 00:53:00
8:53 PM,73.9,70.0,87,29.87,10.0,Calm,Calm,-,0.01,Rain,Light Rain,0,2013-08-27 01:53:00
9:53 PM,73.0,70.0,90,29.86,10.0,Calm,Calm,-,0.00,,Partly Cloudy,0,2013-08-27 02:53:00
10:53 PM,73.0,70.0,90,29.86,10.0,Calm,Calm,-,N/A,,Scattered Clouds,0,2013-08-27 03:53:00
11:53 PM,73.0,69.1,87,29.86,10.0,North,9.2,-,N/A,,Mostly Cloudy,360,2013-08-27 04:53:00